◎2008 QS11の軌道と予報位置



 板垣・金田氏は,21-cm f/3.0反射で行なっている彗星捜索の過程で,2008年9月

29日にエリダヌス座を撮影した捜索フレーム上に,日々運動が10゚で移動する光度が

14等級の高速移動天体を発見しました.この天体は,すでに8月27日にサイデング・

スプリングで発見されていた2008 QS11であることが判明しました.この小惑星は,

10月2日に地球に0.028 AUまで接近し,この頃,13等級まで明るくなります.

 

2008 QS11

Epoch 2008 Nov. 30.0 TT = JDT 2454800.5                 MPC      

M  12.85021              (2000.0)            P               Q

n   0.38831932     Peri.   30.55320     +0.74363136     -0.66716908

a   1.8607015      Node    11.61253     +0.56129597     +0.58756624

e   0.4819570      Incl.   12.49897     +0.36326194     +0.45787699

P   2.54           H   19.5           G   0.15           U   5

Residuals in seconds of arc 

080827 E12  0.1+  0.2-    080910 E09  0.3+  0.1+    080919 E10  0.2-  0.3+  

080827 E12  0.2+  0.4+    080910 E09  0.2-  0.0     080919 E10  0.3-  0.5+  

080827 E12  0.4+  0.1+    080910 E09  0.1+  0.1+    080919 E10  0.2-  0.3+  

080827 E12  0.3-  0.7+    080910 E09  0.0   0.1+    080919 E12  0.1+  0.1+  

080827 E12  0.5+  0.1+    080910 E12  0.0   0.0     080919 E12  0.1+  0.1+  

080827 E12  0.0   0.3+    080910 E12  0.0   0.1-    080919 E12  0.1+  0.0   

080827 E12  0.1-  0.7-    080910 E12  0.0   0.1-    080919 E12  0.0   0.0   

080827 E12  0.3-  0.0     080910 E12  0.1+  0.0     080921 E12  0.0   0.1-  

080827 E12  0.0   0.2+    080911 808 (2.1+  0.6+)   080921 E12  0.0   0.1-  

080827 E12  0.3+  0.2+    080911 808  1.0-  0.0     080925 I77  0.3-  0.2+  

080827 E12  0.3+  0.3+    080911 808  0.5+  0.3+    080925 I77  0.2+  0.0   

080827 E12  0.6+  0.1-    080911 E12  0.1+  0.0     080925 I77  0.0   0.5-  

080828 474  0.1-  0.2+    080911 E09  0.1+  0.0     080925 I77  0.0   0.0   

080828 474  0.0   0.1+    080911 E09  0.0   0.2+    080925 I77  1.1-  0.5+  

080828 474  0.1+  0.1+    080911 E12  0.0   0.1+    080925 I77  0.0   0.3-  

080828 474  0.1+  0.2+    080911 E09  0.0   0.0     080925 I77  0.2-  0.3+  

080828 474  0.1+  0.1+    080911 E09  0.0   0.1+    080925 I77  0.1+  0.2-  

080828 474  0.1+  0.2+    080912 E09  0.5-  0.2+    080925 I77  0.0   0.6-  

080829 F85  0.9-  1.1-    080912 E09  0.0   0.2+    080925 I77  0.4-  0.0   

080829 F85  0.8-  0.5-    080912 E09  0.4-  0.0     080925 E10  0.1-  0.5+  

080901 E12  0.3+  0.5+    080912 E09  0.1-  0.1+    080925 E10  0.5-  0.0   

080905 474  0.1-  0.1-    080912 E09  0.1-  0.2+    080925 E10  0.8+  0.4+  

080905 474  0.2-  0.2-    080914 I77  0.3-  0.4+    080925 E10  0.1-  0.1-  

080905 474  0.2-  0.1-    080914 I77  0.3+  0.6+    080925 E12  0.1+  0.0   

080905 474  0.4-  0.1+    080914 I77  0.2-  0.0     080925 E12  0.1-  0.1-  

080905 474  0.3-  0.1-    080914 808 (0.5-  2.7-)   080926 E12  0.0   0.1+  

080905 474  0.2-  0.0     080914 808  0.8-  0.4-    080926 E12  0.1+  0.0   

080906 I77  0.0   0.1+    080914 808  0.9-  0.6-    080927 E12  0.2+  0.0   

080906 I77  0.0   0.3+    080915 I77  0.6-  0.2-    080927 E12  0.2+  0.2+  

080906 I77  0.1-  0.1+    080915 I77  0.2-  0.2+    080928 A55  0.3-  1.1+  

080906 I77  0.0   0.0     080915 I77  0.2+  0.8+    080928 A55  0.3-  0.3+  

080906 I77  0.1-  0.2-    080915 808  1.6+  0.9+    080928 A55  0.6-  0.1-  

080906 474  0.2-  0.1-    080915 808  0.3-  0.3-    080928 703  0.5-  0.4-  

080906 474  0.1-  0.2-    080915 808  1.4+  0.5+    080928 703  0.3-  0.5-  

080906 474  0.1-  0.1+    080917 E12  0.0   0.1-    080928 703  0.6-  0.3-  

080906 E12  0.2+  0.1-    080917 E12  0.0   0.0     080928 703  0.6-  0.8-  

080906 E12  0.1+  0.0     080917 E12  0.1-  0.0     080929 D89  0.2+  0.2+  

080908 E09  0.2-  0.0     080917 E12  0.0   0.1-    080929 D89  0.2-  0.2-  

080908 E09  0.1-  0.0     080918 E12  0.0   0.1-    080929 D89  0.1+  0.1-  

080908 E09  0.1-  0.0     080918 E12  0.1-  0.2-    080929 D89  0.1+  0.2-  

080908 E09(13.2+  8.4+)   080919 E10  0.2-  0.4+    080929 D89  0.1+  0.3+  

080909 E09  0.0   0.0     080919 E10  0.3-  0.3+    080929 D89  0.2-  0.4-  

080910 E09  0.1+  0.2+    080919 E10  0.2+  0.6+                            

 

RunOff= 611.4

 

Date/  0h TT  R.A.(2000) Decl.     Delta   r     Daily motion  Mag.  Moon Age

                h  m       。  ,                      ,  / PA 。  V       。

2008 Sept.25  02 17.41  -31 04.3   0.053  1.042   240.1 /  47  14.9  105  .20

          26  02 30.66  -28 17.5   0.048  1.037   298.3 /  45  14.6  111  .12

          27  02 46.10  -24 42.8   0.043  1.033   374.1 /  43  14.4  116  .06

          28  03 04.15  -20 04.7   0.038  1.029   469.8 /  41  14.2  121  .02

          29  03 25.29  -14 05.5   0.034  1.025   582.2 /  39  14.0  126  .00

          30  03 49.93  -06 30.6   0.031  1.021   694.3 /  38  13.9  132  .01

     Oct.  1  04 18.34  +02 38.0   0.029  1.017   771.9 /  38  13.8  138  .03

           2  04 50.43  +12 45.5   0.028  1.013   780.1 /  39  14.0  144  .07

           3  05 25.51  +22 44.1   0.028  1.010   714.7 /  41  14.2  150  .13

           4  06 02.25  +31 24.5   0.030  1.006   606.7 /  45  14.6  154  .20

           5  06 38.90  +38 10.6   0.033  1.003   492.7 /  51  15.1  156  .28

           6  07 13.71  +43 04.1   0.037  1.000   393.3 /  56  15.5  157  .37

           7  07 45.42  +46 26.1   0.042  0.997   313.9 /  62  15.9  156  .46

           8  08 13.44  +48 41.0   0.046  0.994   252.6 /  67  16.2  154  .56

           9  08 37.70  +50 09.5   0.052  0.991   205.9 /  72  16.6  150  .65

          10  08 58.50  +51 06.5   0.057  0.988   170.2 /  76  16.8  145  .75

          11  09 16.28  +51 42.5   0.063  0.985   142.6 /  80  17.1  138  .83

          12  09 31.50  +52 04.3   0.068  0.983   121.0 /  83  17.3  130  .90

          13  09 44.59  +52 16.4   0.074  0.981   104.0 /  86  17.5  121  .96

          14  09 55.92  +52 22.1   0.080  0.979    90.4 /  88  17.7  112  .99

          15  10 05.79  +52 23.1   0.086  0.977    79.4 /  91  17.8  102 1.00

          16  10 14.46  +52 21.1   0.092  0.975    70.4 /  93  17.9   91  .98

          17  10 22.12  +52 16.8   0.097  0.973    62.9 /  95  18.1   81  .93

          18  10 28.94  +52 11.0   0.103  0.971    56.7 /  96  18.2   71  .86

          19  10 35.06  +52 04.0   0.109  0.970    51.5 /  98  18.3   61  .77

          20  10 40.58  +51 56.3   0.115  0.969    47.1 / 100  18.4   53  .67

          21  10 45.58  +51 48.0   0.121  0.968    43.3 / 101  18.5   46  .56

          22  10 50.15  +51 39.3   0.127  0.967    40.1 / 102  18.5   42  .44

          23  10 54.35  +51 30.4   0.133  0.966    37.3 / 104  18.6   41  .34

          24  10 58.21  +51 21.2   0.139  0.965    34.8 / 105  18.7   43  .24

          25  11 01.79  +51 12.0   0.145  0.965    32.7 / 106  18.7   48  .16

          26  11 05.11  +51 02.7   0.150  0.964    30.8 / 107  18.8   54  .09

          27  11 08.21  +50 53.3   0.156  0.964    29.1 / 108  18.8   62  .04

          28  11 11.12  +50 44.0   0.162  0.964    27.6 / 109  18.9   70  .01

          29  11 13.85  +50 34.7   0.168  0.964    26.2 / 110  18.9   79  .00

          30  11 16.42  +50 25.4   0.173  0.964    25.0 / 111  19.0   87  .01

          31  11 18.85  +50 16.2   0.179  0.965    23.9 / 112  19.0   96  .04

     Nov.  1  11 21.15  +50 07.0   0.185  0.965    22.9 / 113  19.1  104  .09

NAKANO

         **** Don't distribute anyone except personal use only ****

                (C) Copyright 2008 OAA/ComputingSection

write mail from CFAD0::NAKANO on 2008-09-30 02:28:57(JST).



戻ります。